Weather History for PAKU - October, 2013

Change the Weather History Date:

Wednesday, October 16, 2013

  Actual Average Record
Temperature  
Mean Temperature 19 °F -  
Max Temperature 24 °F 19 °F 37 °F (1993)
Min Temperature 15 °F 11 °F -14 °F (1996)
Degree Days  
Heating Degree Days 46    
Moisture  
Dew Point 18 °F    
Average Humidity 93    
Maximum Humidity 100    
Minimum Humidity 86    
Precipitation  
Precipitation 0.00 in - - ()
Sea Level Pressure  
Sea Level Pressure 29.92 in    
Wind  
Wind Speed 5 mph (ENE)    
Max Wind Speed 12 mph    
Max Gust Speed -    
Visibility 2 miles    
Events Fog    
Averages and records for this station are not official NWS values.
T = Trace of Precipitation, MM = Missing Value Source: NWS Daily Summary

Daily Weather History Graph

Daily Weather History Graph

Search for Another Location

Airport or City:

Trip Planner

Search our weather history database for the weather conditions in past years. The results will help you decide how hot, cold, wet, or windy it might be!

Date:

Astronomy

Oct. 16, 2013 Rise Set
Actual Time 9:19 AM AKDT 6:06 PM AKDT
Civil Twilight 8:14 AM AKDT 7:11 PM AKDT
Nautical Twilight 7:02 AM AKDT 8:22 PM AKDT
Astronomical Twilight 5:48 AM AKDT 9:36 PM AKDT
Moon 5:39 PM AKDT (10/16) 5:54 AM AKDT (10/16)
Length of Visible Light 10h 56m
Length of Day
8h 46m
Waxing Gibbous, 95% of the Moon is Illuminated
Oct 16
Waxing Gibbous
Oct 18
Full
Oct 26
Last Quarter
Nov 3
New
Nov 9
First Quarter

Hourly Weather History & Observations

Time (AKDT) Temp. Windchill Dew Point Humidity Pressure Visibility Wind Dir Wind Speed Gust Speed Precip Events Conditions
3:46 AM 19.4 °F - 15.8 °F 86% 29.81 in 10.0 mi Variable 2.3 mph - N/A   Mostly Cloudy
4:45 AM 19.4 °F 12.8 °F 15.8 °F 86% 29.82 in 10.0 mi NE 4.6 mph - N/A   Mostly Cloudy
5:45 AM 17.6 °F - 14.0 °F 86% 29.85 in 10.0 mi Variable 2.3 mph - N/A   Scattered Clouds
6:45 AM 15.8 °F 6.1 °F 12.2 °F 86% 29.86 in 1.0 mi NNE 6.9 mph - N/A   Mostly Cloudy
7:32 AM 19.4 °F 14.3 °F 19.4 °F 100% 29.88 in 0.4 mi Variable 3.5 mph - N/A Fog Light Freezing Fog
7:58 AM 19.4 °F - 17.6 °F 93% 29.90 in 0.4 mi Variable 2.3 mph - N/A Fog Light Freezing Fog
8:20 AM 19.4 °F 14.3 °F 17.6 °F 93% 29.90 in 0.8 mi Variable 3.5 mph - N/A   Mostly Cloudy
8:50 AM 19.4 °F - 19.4 °F 100% 29.92 in 0.8 mi Variable 1.2 mph - N/A   Mist
9:45 AM 21.2 °F - 19.4 °F 93% 29.92 in 1.0 mi Variable 2.3 mph - N/A   Mostly Cloudy
10:25 AM 21.2 °F 14.9 °F 19.4 °F 93% 29.94 in 0.5 mi Variable 4.6 mph - N/A Fog Light Freezing Fog
10:55 AM 19.4 °F 12.8 °F 17.6 °F 93% 29.94 in 0.2 mi Variable 4.6 mph - N/A Fog Light Freezing Fog
11:45 AM 17.6 °F 10.7 °F 17.6 °F 100% 29.95 in 0.4 mi Variable 4.6 mph - N/A Fog Light Freezing Fog
12:50 PM 19.4 °F 10.4 °F 17.6 °F 93% 29.96 in 4.0 mi East 6.9 mph - N/A   Mostly Cloudy
1:20 PM 19.4 °F 11.5 °F 17.6 °F 93% 29.96 in 0.8 mi East 5.8 mph - N/A   Mostly Cloudy
1:51 PM 19.4 °F 9.5 °F 19.4 °F 100% 29.96 in 0.1 mi ENE 8.1 mph - N/A Fog Light Freezing Fog
2:45 PM 21.2 °F 13.6 °F 19.4 °F 93% 29.96 in 2.0 mi East 5.8 mph - N/A   Mostly Cloudy
3:15 PM 21.2 °F 12.6 °F 19.4 °F 93% 29.96 in 0.5 mi East 6.9 mph - N/A Fog Light Freezing Fog
3:45 PM 21.2 °F 11.7 °F 19.4 °F 93% 29.96 in 0.5 mi East 8.1 mph - N/A Fog Light Freezing Fog
4:45 PM 23.0 °F 13.1 °F 21.2 °F 93% 29.95 in 0.5 mi East 9.2 mph - N/A Fog Light Freezing Fog
5:45 PM 23.0 °F 11.7 °F 23.0 °F 100% 29.95 in 0.8 mi East 11.5 mph - N/A   Mist
6:45 PM 24.8 °F 14.0 °F 23.0 °F 93% 29.94 in 2.0 mi East 11.5 mph - N/A   Overcast